| time (UTC) | temp C | wind direction | speed KPH | gust KPH | rain 1hr cm | rain 24hr cm | rain mn cm | humidity % | barometer mb |
| 20260902165535 | 22 | 0.0 | 0.0 | 0.00 | 0.00 | 0.00 | 73 | 1028.3 | |
| 20260902164527 | 22 | 2 | 1.6 | 1.6 | 0.00 | 0.00 | 0.00 | 70 | 1028.3 |
| 20260902163638 | 23 | 6 | 0.0 | 3.2 | 0.00 | 0.00 | 0.00 | 68 | 1028.2 |
| 20260902162606 | 23 | 10 | 0.0 | 1.6 | 0.00 | 0.00 | 0.00 | 66 | 1028.2 |
| 20260902161618 | 24 | 0.0 | 0.0 | 0.00 | 0.00 | 0.00 | 64 | 1028.1 | |
| 20260902160547 | 24 | 148 | 1.6 | 3.2 | 0.00 | 0.00 | 0.00 | 62 | 1028.1 |
| 20260902155537 | 25 | 225 | 1.6 | 6.4 | 0.00 | 0.00 | 0.00 | 62 | 1028.1 |
| 20260902154528 | 25 | 206 | 1.6 | 3.2 | 0.00 | 0.00 | 0.00 | 59 | 1028.1 |
| 20260902153537 | 26 | 218 | 3.2 | 4.8 | 0.00 | 0.00 | 0.00 | 59 | 1028.1 |
| 20260902152607 | 27 | 266 | 3.2 | 6.4 | 0.00 | 0.00 | 0.00 | 56 | 1028.2 |
| 20260902151559 | 27 | 239 | 3.2 | 6.4 | 0.00 | 0.00 | 0.00 | 54 | 1028.4 |
| 20260902150547 | 27 | 249 | 4.8 | 11.3 | 0.00 | 0.00 | 0.00 | 53 | 1028.3 |
| 20260902145537 | 28 | 210 | 6.4 | 12.9 | 0.00 | 0.00 | 0.00 | 51 | 1028.5 |
| 20260902144527 | 28 | 186 | 4.8 | 9.7 | 0.00 | 0.00 | 0.00 | 51 | 1028.4 |
| 20260902143519 | 27 | 194 | 3.2 | 6.4 | 0.00 | 0.00 | 0.00 | 53 | 1028.5 |
| 20260902142609 | 27 | 171 | 3.2 | 6.4 | 0.00 | 0.00 | 0.00 | 52 | 1028.5 |
| 20260902141558 | 27 | 224 | 3.2 | 4.8 | 0.00 | 0.00 | 0.00 | 51 | 1028.6 |
| 20260902140548 | 27 | 190 | 6.4 | 12.9 | 0.00 | 0.00 | 0.00 | 50 | 1028.6 |
| 20260902135619 | 28 | 200 | 4.8 | 14.5 | 0.00 | 0.00 | 0.00 | 49 | 1028.7 |
| 20260902134529 | 28 | 169 | 6.4 | 12.9 | 0.00 | 0.00 | 0.00 | 48 | 1028.6 |
| 20260902133517 | 28 | 192 | 4.8 | 9.7 | 0.00 | 0.00 | 0.00 | 49 | 1028.7 |
| 20260902132608 | 28 | 176 | 6.4 | 11.3 | 0.00 | 0.00 | 0.00 | 49 | 1028.7 |
| 20260902131558 | 28 | 179 | 4.8 | 11.3 | 0.00 | 0.00 | 0.00 | 49 | 1029.0 |
| 20260902130609 | 28 | 203 | 6.4 | 14.5 | 0.00 | 0.00 | 0.00 | 48 | 1028.9 |
| 20260902125540 | 28 | 197 | 8.0 | 14.5 | 0.00 | 0.00 | 0.00 | 48 | 1029.0 |
| 20260902124528 | 28 | 191 | 6.4 | 12.9 | 0.00 | 0.00 | 0.00 | 47 | 1029.0 |
| 20260902123518 | 28 | 193 | 6.4 | 11.3 | 0.00 | 0.00 | 0.00 | 48 | 1029.1 |
| 20260902122631 | 28 | 170 | 4.8 | 11.3 | 0.00 | 0.00 | 0.00 | 48 | 1029.1 |
| 20260902121601 | 28 | 172 | 8.0 | 11.3 | 0.00 | 0.00 | 0.00 | 49 | 1029.3 |
| 20260902120550 | 27 | 207 | 4.8 | 11.3 | 0.00 | 0.00 | 0.00 | 51 | 1029.4 |
| 20260902115539 | 27 | 174 | 6.4 | 11.3 | 0.00 | 0.00 | 0.00 | 50 | 1029.5 |
| 20260902114529 | 27 | 207 | 4.8 | 12.9 | 0.00 | 0.00 | 0.00 | 51 | 1029.7 |
| 20260902113519 | 27 | 156 | 4.8 | 11.3 | 0.00 | 0.00 | 0.00 | 51 | 1029.8 |
| 20260902112610 | 27 | 188 | 6.4 | 14.5 | 0.00 | 0.00 | 0.00 | 52 | 1030.0 |
| 20260902111600 | 27 | 152 | 4.8 | 9.7 | 0.00 | 0.00 | 0.00 | 52 | 1030.1 |
| 20260902110551 | 27 | 177 | 4.8 | 6.4 | 0.00 | 0.00 | 0.00 | 53 | 1030.2 |
| 20260902105540 | 27 | 166 | 3.2 | 9.7 | 0.00 | 0.00 | 0.00 | 54 | 1030.4 |
| 20260902104550 | 27 | 146 | 1.6 | 4.8 | 0.00 | 0.00 | 0.00 | 56 | 1030.6 |
| 20260902103520 | 26 | 151 | 1.6 | 3.2 | 0.00 | 0.00 | 0.00 | 56 | 1030.7 |
| 20260902102611 | 25 | 145 | 1.6 | 3.2 | 0.00 | 0.00 | 0.00 | 56 | 1030.9 |
| 20260902101601 | 25 | 144 | 1.6 | 3.2 | 0.00 | 0.00 | 0.00 | 56 | 1031.1 |
| 20260902100553 | 26 | 72 | 1.6 | 1.6 | 0.00 | 0.00 | 0.00 | 54 | 1031.1 |
| 20260902095541 | 25 | 74 | 0.0 | 1.6 | 0.00 | 0.00 | 0.00 | 59 | 1031.1 |
| 20260902094531 | 23 | 163 | 1.6 | 1.6 | 0.00 | 0.00 | 0.00 | 60 | 1031.3 |
| 20260902093520 | 22 | 162 | 0.0 | 1.6 | 0.00 | 0.00 | 0.00 | 64 | 1031.4 |
| 20260902092611 | 22 | 169 | 1.6 | 3.2 | 0.00 | 0.00 | 0.00 | 63 | 1031.4 |
| 20260902091624 | 22 | 141 | 1.6 | 3.2 | 0.00 | 0.00 | 0.00 | 66 | 1031.4 |
| 20260902090552 | 22 | 116 | 1.6 | 3.2 | 0.00 | 0.00 | 0.00 | 67 | 1031.5 |
| 20260902085543 | 22 | 71 | 0.0 | 1.6 | 0.00 | 0.00 | 0.00 | 66 | 1031.4 |
| 20260902084532 | 21 | 0.0 | 0.0 | 0.00 | 0.00 | 0.00 | 69 | 1031.4 | |
| 20260902083542 | 20 | 0.0 | 0.0 | 0.00 | 0.00 | 0.00 | 75 | 1031.5 | |
| 20260902082613 | 20 | 106 | 1.6 | 1.6 | 0.00 | 0.00 | 0.00 | 76 | 1031.5 |
| 20260902081604 | 19 | 48 | 0.0 | 1.6 | 0.00 | 0.00 | 0.00 | 79 | 1031.5 |
| 20260902080554 | 18 | 0.0 | 0.0 | 0.00 | 0.00 | 0.00 | 84 | 1031.6 | |
| 20260902075544 | 18 | 0.0 | 0.0 | 0.00 | 0.00 | 0.00 | 83 | 1031.6 | |
| 20260902074555 | 18 | 0.0 | 0.0 | 0.00 | 0.00 | 0.00 | 84 | 1031.5 | |
| 20260902073523 | 17 | 0.0 | 0.0 | 0.00 | 0.00 | 0.00 | 84 | 1031.7 | |
| 20260902072615 | 17 | 26 | 0.0 | 1.6 | 0.00 | 0.00 | 0.00 | 83 | 1031.7 |
| 20260902071605 | 17 | 0.0 | 0.0 | 0.00 | 0.00 | 0.00 | 85 | 1031.6 | |
| 20260902070555 | 17 | 0.0 | 0.0 | 0.00 | 0.00 | 0.00 | 84 | 1031.7 | |
| 20260902065626 | 17 | 0.0 | 0.0 | 0.00 | 0.00 | 0.00 | 85 | 1031.6 | |
| 20260902064534 | 17 | 0.0 | 0.0 | 0.00 | 0.00 | 0.00 | 86 | 1031.7 | |
| 20260902063524 | 16 | 0.0 | 0.0 | 0.00 | 0.00 | 0.00 | 86 | 1031.6 | |
| 20260902062617 | 16 | 0.0 | 0.0 | 0.00 | 0.00 | 0.00 | 87 | 1031.7 | |
| 20260902061605 | 16 | 0.0 | 0.0 | 0.00 | 0.00 | 0.00 | 87 | 1031.6 | |
| 20260902060556 | 16 | 0.0 | 0.0 | 0.00 | 0.00 | 0.00 | 87 | 1031.5 | |
| 20260902055545 | 16 | 0.0 | 0.0 | 0.00 | 0.00 | 0.00 | 88 | 1031.6 | |
| 20260902054535 | 16 | 0.0 | 0.0 | 0.00 | 0.00 | 0.00 | 89 | 1031.5 | |
| 20260902053526 | 16 | 0.0 | 0.0 | 0.00 | 0.00 | 0.00 | 89 | 1031.5 | |
| 20260902052616 | 16 | 0.0 | 0.0 | 0.00 | 0.00 | 0.00 | 89 | 1031.4 | |
| 20260902051607 | 16 | 0.0 | 0.0 | 0.00 | 0.00 | 0.00 | 88 | 1031.3 | |
| 20260902050557 | 16 | 0.0 | 0.0 | 0.00 | 0.00 | 0.00 | 87 | 1031.4 | |
| 20260902045546 | 16 | 0.0 | 0.0 | 0.00 | 0.00 | 0.00 | 87 | 1031.3 | |
| 20260902044536 | 16 | 8 | 0.0 | 3.2 | 0.00 | 0.00 | 0.00 | 86 | 1031.1 |
| 20260902043526 | 16 | 0.0 | 0.0 | 0.00 | 0.00 | 0.00 | 87 | 1031.2 | |
| 20260902042538 | 16 | 359 | 0.0 | 1.6 | 0.00 | 0.00 | 0.00 | 89 | 1031.2 |
| 20260902041607 | 16 | 0.0 | 0.0 | 0.00 | 0.00 | 0.00 | 89 | 1031.2 | |
| 20260902040557 | 16 | 0.0 | 0.0 | 0.00 | 0.00 | 0.00 | 88 | 1031.1 | |
| 20260902035608 | 16 | 0.0 | 0.0 | 0.00 | 0.00 | 0.00 | 87 | 1031.2 | |
| 20260902034537 | 16 | 0.0 | 0.0 | 0.00 | 0.00 | 0.00 | 86 | 1031.2 | |
| 20260902033528 | 16 | 0.0 | 0.0 | 0.00 | 0.00 | 0.00 | 85 | 1031.2 | |
| 20260902032517 | 17 | 9 | 0.0 | 3.2 | 0.00 | 0.00 | 0.00 | 84 | 1031.1 |
| 20260902031608 | 16 | 0.0 | 0.0 | 0.00 | 0.00 | 0.00 | 85 | 1031.2 | |
| 20260902030600 | 16 | 0.0 | 0.0 | 0.00 | 0.00 | 0.00 | 85 | 1031.2 | |
| 20260902025608 | 16 | 0.0 | 0.0 | 0.00 | 0.00 | 0.00 | 85 | 1031.2 | |
| 20260902024538 | 16 | 0.0 | 0.0 | 0.00 | 0.00 | 0.00 | 85 | 1031.3 | |
| 20260902023548 | 16 | 0 | 0.0 | 1.6 | 0.00 | 0.00 | 0.00 | 85 | 1031.3 |
| 20260902022519 | 16 | 0.0 | 0.0 | 0.00 | 0.00 | 0.00 | 85 | 1031.2 | |
| 20260902021630 | 16 | 0.0 | 0.0 | 0.00 | 0.00 | 0.00 | 85 | 1031.2 | |
| 20260902020600 | 16 | 0.0 | 0.0 | 0.00 | 0.00 | 0.00 | 86 | 1031.3 | |
| 20260902015549 | 16 | 0.0 | 0.0 | 0.00 | 0.00 | 0.00 | 86 | 1031.3 | |
| 20260902014539 | 16 | 0.0 | 0.0 | 0.00 | 0.00 | 0.00 | 85 | 1031.2 | |
| 20260902013529 | 17 | 15 | 0.0 | 1.6 | 0.00 | 0.00 | 0.00 | 84 | 1031.2 |
| 20260902012519 | 17 | 29 | 0.0 | 3.2 | 0.00 | 0.00 | 0.00 | 83 | 1031.2 |
| 20260902011611 | 17 | 0.0 | 0.0 | 0.00 | 0.00 | 0.00 | 82 | 1031.2 | |
| 20260902010600 | 17 | 327 | 0.0 | 4.8 | 0.00 | 0.00 | 0.00 | 82 | 1031.1 |
| 20260902005550 | 17 | 10 | 0.0 | 1.6 | 0.00 | 0.00 | 0.00 | 82 | 1031.1 |
| 20260902004541 | 17 | 14 | 1.6 | 3.2 | 0.00 | 0.00 | 0.00 | 82 | 1031.2 |
| 20260902003530 | 17 | 17 | 1.6 | 6.4 | 0.00 | 0.00 | 0.00 | 82 | 1031.1 |
| 20260902002520 | 17 | 13 | 3.2 | 4.8 | 0.00 | 0.00 | 0.00 | 82 | 1031.0 |
| 20260902001612 | 17 | 16 | 1.6 | 3.2 | 0.00 | 0.00 | 0.00 | 83 | 1031.1 |
| 20260902000603 | 17 | 34 | 0.0 | 3.2 | 0.00 | 0.00 | 0.00 | 83 | 1031.1 |
| 20260901235551 | 17 | 13 | 0.0 | 1.6 | 0.00 | 0.00 | 0.00 | 83 | 1031.0 |
| 20260901234541 | 17 | 18 | 1.6 | 3.2 | 0.00 | 0.00 | 0.00 | 84 | 1031.0 |
| 20260901233531 | 17 | 6 | 1.6 | 6.4 | 0.00 | 0.00 | 0.00 | 83 | 1031.0 |
| 20260901232521 | 17 | 30 | 1.6 | 4.8 | 0.00 | 0.00 | 0.00 | 83 | 1030.9 |
| 20260901231612 | 17 | 26 | 1.6 | 3.2 | 0.00 | 0.00 | 0.00 | 84 | 1030.8 |
| 20260901230602 | 17 | 18 | 0.0 | 1.6 | 0.00 | 0.00 | 0.00 | 85 | 1030.9 |
| 20260901225614 | 17 | 25 | 3.2 | 4.8 | 0.00 | 0.00 | 0.00 | 85 | 1031.0 |
| 20260901224542 | 17 | 25 | 0.0 | 0.0 | 0.00 | 0.00 | 0.00 | 85 | 1031.1 |
| 20260901223532 | 17 | 21 | 0.0 | 1.6 | 0.00 | 0.00 | 0.00 | 86 | 1031.0 |
| 20260901222521 | 17 | 0.0 | 0.0 | 0.00 | 0.00 | 0.00 | 86 | 1030.9 | |
| 20260901221654 | 17 | 0.0 | 0.0 | 0.00 | 0.00 | 0.00 | 86 | 1030.8 | |
| 20260901220604 | 17 | 0.0 | 0.0 | 0.00 | 0.00 | 0.00 | 86 | 1030.9 | |
| 20260901215615 | 17 | 0.0 | 0.0 | 0.00 | 0.00 | 0.00 | 86 | 1030.9 | |
| 20260901214543 | 17 | 26 | 0.0 | 0.0 | 0.00 | 0.00 | 0.00 | 87 | 1030.9 |
| 20260901213533 | 18 | 0.0 | 0.0 | 0.00 | 0.00 | 0.00 | 86 | 1030.8 | |
| 20260901212523 | 18 | 0.0 | 0.0 | 0.00 | 0.00 | 0.00 | 86 | 1030.7 | |
| 20260901211614 | 18 | 0.0 | 0.0 | 0.00 | 0.00 | 0.00 | 85 | 1030.7 | |
| 20260901210646 | 18 | 5 | 0.0 | 1.6 | 0.00 | 0.00 | 0.00 | 85 | 1030.6 |
| 20260901205614 | 18 | 0.0 | 0.0 | 0.00 | 0.00 | 0.00 | 84 | 1030.6 | |
| 20260901204604 | 18 | 0.0 | 0.0 | 0.00 | 0.00 | 0.00 | 85 | 1030.6 | |
| 20260901203534 | 18 | 23 | 0.0 | 3.2 | 0.00 | 0.00 | 0.00 | 85 | 1030.6 |
| 20260901202524 | 18 | 0.0 | 0.0 | 0.00 | 0.00 | 0.00 | 84 | 1030.6 | |
| 20260901201615 | 19 | 34 | 0.0 | 3.2 | 0.00 | 0.00 | 0.00 | 84 | 1030.6 |
| 20260901200605 | 19 | 24 | 0.0 | 1.6 | 0.00 | 0.00 | 0.00 | 84 | 1030.4 |
| 20260901195555 | 19 | 25 | 0.0 | 0.0 | 0.00 | 0.00 | 0.00 | 84 | 1030.5 |
| 20260901194605 | 19 | 27 | 0.0 | 1.6 | 0.00 | 0.00 | 0.00 | 83 | 1030.4 |
| 20260901193534 | 20 | 0.0 | 0.0 | 0.00 | 0.00 | 0.00 | 83 | 1030.3 | |
| 20260901192524 | 20 | 0.0 | 0.0 | 0.00 | 0.00 | 0.00 | 83 | 1030.1 | |
| 20260901191616 | 20 | 23 | 0.0 | 0.0 | 0.00 | 0.00 | 0.00 | 82 | 1030.1 |
| 20260901190627 | 20 | 0.0 | 0.0 | 0.00 | 0.00 | 0.00 | 83 | 1030.0 | |
| 20260901185556 | 20 | 26 | 0.0 | 0.0 | 0.00 | 0.00 | 0.00 | 82 | 1029.7 |
| 20260901184545 | 20 | 27 | 0.0 | 1.6 | 0.00 | 0.00 | 0.00 | 82 | 1029.7 |
| 20260901183557 | 20 | 50 | 0.0 | 1.6 | 0.00 | 0.00 | 0.00 | 80 | 1029.6 |
| 20260901182607 | 21 | 30 | 0.0 | 0.0 | 0.00 | 0.00 | 0.00 | 80 | 1029.4 |
| 20260901181516 | 21 | 0.0 | 0.0 | 0.00 | 0.00 | 0.00 | 78 | 1029.4 | |
| 20260901180629 | 21 | 19 | 0.0 | 1.6 | 0.00 | 0.00 | 0.00 | 78 | 1029.4 |
| 20260901175558 | 21 | 33 | 0.0 | 1.6 | 0.00 | 0.00 | 0.00 | 77 | 1029.2 |
| 20260901174547 | 22 | 39 | 1.6 | 3.2 | 0.00 | 0.00 | 0.00 | 75 | 1029.1 |
| 20260901173559 | 22 | 30 | 1.6 | 3.2 | 0.00 | 0.00 | 0.00 | 77 | 1029.0 |
| 20260901172527 | 22 | 30 | 1.6 | 1.6 | 0.00 | 0.00 | 0.00 | 75 | 1028.9 |
| 20260901171517 | 22 | 49 | 0.0 | 1.6 | 0.00 | 0.00 | 0.00 | 72 | 1029.0 |
| 20260901170609 | 23 | 28 | 0.0 | 1.6 | 0.00 | 0.00 | 0.00 | 72 | 1028.9 |